| time (UTC) | temp F | wind direction | speed MPH | gust MPH | rain 1hr in | rain 24hr in | rain mn in | humidity % | barometer mb |
| 20260507193437 | 63 | 75 | 11.0 | 8.0 | 0.00 | 0.00 | 0.00 | ||
| 20260507192937 | 64 | 104 | 8.0 | 7.0 | 0.00 | 0.00 | 0.00 | ||
| 20260507192438 | 64 | 76 | 7.0 | 8.0 | 0.00 | 0.00 | 0.00 | ||
| 20260507191935 | 64 | 70 | 10.0 | 8.0 | 0.00 | 0.00 | 0.00 | ||
| 20260507191436 | 65 | 41 | 10.0 | 8.0 | 0.00 | 0.00 | 0.00 | ||
| 20260507190936 | 65 | 87 | 9.0 | 9.0 | 0.00 | 0.00 | 0.00 | ||
| 20260507190434 | 64 | 66 | 7.0 | 8.0 | 0.00 | 0.00 | 0.00 | ||
| 20260507185934 | 64 | 135 | 11.0 | 13.0 | 0.00 | 0.00 | 0.00 | ||
| 20260507185435 | 64 | 128 | 9.0 | 8.0 | 0.00 | 0.00 | 0.00 | ||
| 20260507184933 | 65 | 73 | 10.0 | 11.0 | 0.00 | 0.00 | 0.00 | ||
| 20260507184433 | 64 | 59 | 10.0 | 7.0 | 0.00 | 0.00 | 0.00 | ||
| 20260507183934 | 64 | 42 | 10.0 | 10.0 | 0.00 | 0.00 | 0.00 | ||
| 20260507183431 | 64 | 38 | 9.0 | 11.0 | 0.00 | 0.00 | 0.00 | ||
| 20260507182932 | 64 | 39 | 9.0 | 12.0 | 0.00 | 0.00 | 0.00 | ||
| 20260507182432 | 64 | 56 | 12.0 | 9.0 | 0.00 | 0.00 | 0.00 | ||
| 20260507181929 | 64 | 48 | 9.0 | 11.0 | 0.00 | 0.00 | 0.00 | ||
| 20260507181430 | 64 | 100 | 9.0 | 10.0 | 0.00 | 0.00 | 0.00 | ||
| 20260507180930 | 64 | 82 | 14.0 | 11.0 | 0.00 | 0.00 | 0.00 | ||
| 20260507180428 | 64 | 62 | 13.0 | 8.0 | 0.00 | 0.00 | 0.00 | ||
| 20260507175928 | 63 | 55 | 12.0 | 9.0 | 0.00 | 0.00 | 0.00 | ||
| 20260507175429 | 63 | 21 | 11.0 | 10.0 | 0.00 | 0.00 | 0.00 | ||
| 20260507174926 | 64 | 25 | 10.0 | 10.0 | 0.00 | 0.00 | 0.00 | ||
| 20260507174427 | 64 | 23 | 12.0 | 11.0 | 0.00 | 0.00 | 0.00 | ||
| 20260507173927 | 64 | 49 | 11.0 | 14.0 | 0.00 | 0.00 | 0.00 | ||
| 20260507173425 | 65 | 35 | 9.0 | 12.0 | 0.00 | 0.00 | 0.00 | ||
| 20260507172925 | 64 | 58 | 13.0 | 11.0 | 0.00 | 0.00 | 0.00 | ||
| 20260507172426 | 65 | 28 | 10.0 | 16.0 | 0.00 | 0.00 | 0.00 | ||
| 20260507171923 | 64 | 55 | 10.0 | 9.0 | 0.00 | 0.00 | 0.00 | ||
| 20260507171424 | 63 | 30 | 9.0 | 12.0 | 0.00 | 0.00 | 0.00 | ||
| 20260507170924 | 62 | 1 | 8.0 | 14.0 | 0.00 | 0.00 | 0.00 | ||
| 20260507170422 | 64 | 23 | 11.0 | 10.0 | 0.00 | 0.00 | 0.00 | ||
| 20260507165922 | 63 | 8 | 9.0 | 13.0 | 0.00 | 0.00 | 0.00 | ||
| 20260507165423 | 62 | 32 | 7.0 | 9.0 | 0.00 | 0.00 | 0.00 | ||
| 20260507164920 | 61 | 37 | 11.0 | 10.0 | 0.00 | 0.00 | 0.00 | ||
| 20260507164421 | 61 | 55 | 8.0 | 11.0 | 0.00 | 0.00 | 0.00 | ||
| 20260507164017 | 61 | 11 | 10.0 | 8.0 | 0.00 | 0.00 | 0.00 | ||
| 20260507163921 | 61 | 11 | 10.0 | 8.0 | 0.00 | 0.00 | 0.00 | ||
| 20260507163419 | 60 | 32 | 11.0 | 11.0 | 0.00 | 0.00 | 0.00 | ||
| 20260507162919 | 61 | 45 | 8.0 | 10.0 | 0.00 | 0.00 | 0.00 | ||
| 20260507162420 | 61 | 359 | 8.0 | 8.0 | 0.00 | 0.00 | 0.00 | ||
| 20260507161917 | 60 | 58 | 10.0 | 8.0 | 0.00 | 0.00 | 0.00 | ||
| 20260507161418 | 60 | 41 | 10.0 | 10.0 | 0.00 | 0.00 | 0.00 | ||
| 20260507160919 | 59 | 18 | 8.0 | 11.0 | 0.00 | 0.00 | 0.00 | ||
| 20260507160416 | 58 | 8 | 12.0 | 9.0 | 0.00 | 0.00 | 0.00 | ||
| 20260507155917 | 58 | 7 | 10.0 | 10.0 | 0.00 | 0.00 | 0.00 | ||
| 20260507155417 | 58 | 13 | 10.0 | 11.0 | 0.00 | 0.00 | 0.00 | ||
| 20260507154915 | 57 | 3 | 10.0 | 11.0 | 0.00 | 0.00 | 0.00 | ||
| 20260507154415 | 58 | 32 | 13.0 | 10.0 | 0.00 | 0.00 | 0.00 | ||
| 20260507153916 | 58 | 31 | 10.0 | 13.0 | 0.00 | 0.00 | 0.00 | ||
| 20260507153414 | 57 | 15 | 9.0 | 11.0 | 0.00 | 0.00 | 0.00 | ||
| 20260507152914 | 57 | 20 | 10.0 | 12.0 | 0.00 | 0.00 | 0.00 | ||
| 20260507152415 | 57 | 354 | 10.0 | 14.0 | 0.00 | 0.00 | 0.00 | ||
| 20260507151912 | 57 | 14 | 13.0 | 14.0 | 0.00 | 0.00 | 0.00 | ||
| 20260507151413 | 56 | 4 | 11.0 | 10.0 | 0.00 | 0.00 | 0.00 | ||
| 20260507150913 | 55 | 8 | 12.0 | 14.0 | 0.00 | 0.00 | 0.00 | ||
| 20260507150411 | 55 | 13 | 11.0 | 10.0 | 0.00 | 0.00 | 0.00 | ||
| 20260507145911 | 55 | 3 | 11.0 | 9.0 | 0.00 | 0.00 | 0.00 | ||
| 20260507145412 | 55 | 7 | 10.0 | 10.0 | 0.00 | 0.00 | 0.00 | ||
| 20260507144910 | 55 | 6 | 11.0 | 9.0 | 0.00 | 0.00 | 0.00 | ||
| 20260507144410 | 56 | 346 | 10.0 | 13.0 | 0.00 | 0.00 | 0.00 | ||
| 20260507143911 | 55 | 28 | 11.0 | 11.0 | 0.00 | 0.00 | 0.00 | ||
| 20260507143409 | 55 | 17 | 9.0 | 14.0 | 0.00 | 0.00 | 0.00 | ||
| 20260507142909 | 55 | 51 | 9.0 | 6.0 | 0.00 | 0.00 | 0.00 | ||
| 20260507142410 | 55 | 20 | 10.0 | 8.0 | 0.00 | 0.00 | 0.00 | ||
| 20260507141908 | 55 | 6 | 11.0 | 11.0 | 0.00 | 0.00 | 0.00 | ||
| 20260507141408 | 54 | 41 | 9.0 | 10.0 | 0.00 | 0.00 | 0.00 | ||
| 20260507140909 | 54 | 23 | 9.0 | 9.0 | 0.00 | 0.00 | 0.00 | ||
| 20260507140407 | 54 | 14 | 11.0 | 12.0 | 0.00 | 0.00 | 0.00 | ||
| 20260507135907 | 54 | 13 | 11.0 | 11.0 | 0.00 | 0.00 | 0.00 | ||
| 20260507135408 | 54 | 25 | 10.0 | 9.0 | 0.00 | 0.00 | 0.00 | ||
| 20260507134906 | 54 | 354 | 11.0 | 10.0 | 0.00 | 0.00 | 0.00 | ||
| 20260507134406 | 54 | 21 | 10.0 | 11.0 | 0.00 | 0.00 | 0.00 | ||
| 20260507133907 | 54 | 28 | 10.0 | 12.0 | 0.00 | 0.00 | 0.00 | ||
| 20260507133405 | 54 | 34 | 9.0 | 9.0 | 0.00 | 0.00 | 0.00 | ||
| 20260507132905 | 54 | 8 | 12.0 | 14.0 | 0.00 | 0.00 | 0.00 | ||
| 20260507132406 | 54 | 31 | 12.0 | 12.0 | 0.00 | 0.00 | 0.00 | ||
| 20260507131905 | 55 | 3 | 11.0 | 8.0 | 0.00 | 0.00 | 0.00 | ||
| 20260507131404 | 54 | 1 | 10.0 | 10.0 | 0.00 | 0.00 | 0.00 | ||
| 20260507130905 | 53 | 23 | 10.0 | 10.0 | 0.00 | 0.00 | 0.00 | ||
| 20260507130402 | 54 | 17 | 11.0 | 13.0 | 0.00 | 0.00 | 0.00 | ||
| 20260507125903 | 54 | 349 | 10.0 | 11.0 | 0.00 | 0.00 | 0.00 | ||
| 20260507125403 | 55 | 18 | 9.0 | 8.0 | 0.00 | 0.00 | 0.00 | ||
| 20260507124901 | 54 | 13 | 9.0 | 8.0 | 0.00 | 0.00 | 0.00 | ||
| 20260507124402 | 54 | 23 | 11.0 | 15.0 | 0.00 | 0.00 | 0.00 | ||
| 20260507123902 | 53 | 17 | 9.0 | 10.0 | 0.00 | 0.00 | 0.00 | ||
| 20260507123400 | 53 | 1 | 11.0 | 10.0 | 0.00 | 0.00 | 0.00 | ||
| 20260507122900 | 53 | 25 | 8.0 | 10.0 | 0.00 | 0.00 | 0.00 | ||
| 20260507122401 | 53 | 24 | 8.0 | 8.0 | 0.00 | 0.00 | 0.00 | ||
| 20260507121859 | 53 | 349 | 8.0 | 14.0 | 0.00 | 0.00 | 0.00 | ||
| 20260507121400 | 53 | 342 | 9.0 | 9.0 | 0.00 | 0.00 | 0.00 | ||
| 20260507120900 | 53 | 7 | 9.0 | 10.0 | 0.00 | 0.00 | 0.00 | ||
| 20260507120357 | 53 | 32 | 8.0 | 6.0 | 0.00 | 0.00 | 0.00 | ||
| 20260507115858 | 53 | 359 | 12.0 | 8.0 | 0.00 | 0.00 | 0.00 | ||
| 20260507115358 | 54 | 7 | 13.0 | 9.0 | 0.00 | 0.00 | 0.00 | ||
| 20260507114856 | 53 | 4 | 12.0 | 10.0 | 0.00 | 0.00 | 0.00 | ||
| 20260507114356 | 54 | 25 | 10.0 | 9.0 | 0.00 | 0.00 | 0.00 | ||
| 20260507113857 | 54 | 10 | 11.0 | 11.0 | 0.00 | 0.00 | 0.00 | ||
| 20260507113354 | 54 | 353 | 10.0 | 10.0 | 0.00 | 0.00 | 0.00 | ||
| 20260507112855 | 54 | 13 | 9.0 | 7.0 | 0.00 | 0.00 | 0.00 | ||
| 20260507112355 | 54 | 357 | 9.0 | 9.0 | 0.00 | 0.00 | 0.00 | ||
| 20260507111853 | 54 | 4 | 9.0 | 11.0 | 0.00 | 0.00 | 0.00 | ||
| 20260507111424 | 55 | 13 | 11.0 | 9.0 | 0.00 | 0.00 | 0.00 | ||
| 20260507111353 | 55 | 13 | 11.0 | 9.0 | 0.00 | 0.00 | 0.00 | ||
| 20260507110926 | 55 | 8 | 12.0 | 11.0 | 0.00 | 0.00 | 0.00 | ||
| 20260507110854 | 55 | 8 | 12.0 | 11.0 | 0.00 | 0.00 | 0.00 | ||
| 20260507105852 | 55 | 4 | 9.0 | 8.0 | 0.00 | 0.00 | 0.00 | ||
| 20260507105352 | 55 | 359 | 11.0 | 10.0 | 0.00 | 0.00 | 0.00 | ||
| 20260507104850 | 56 | 353 | 10.0 | 9.0 | 0.00 | 0.00 | 0.00 | ||
| 20260507104350 | 55 | 35 | 10.0 | 9.0 | 0.00 | 0.00 | 0.00 | ||
| 20260507103850 | 55 | 18 | 14.0 | 13.0 | 0.00 | 0.00 | 0.00 | ||
| 20260507103348 | 55 | 0 | 9.0 | 14.0 | 0.00 | 0.00 | 0.00 | ||
| 20260507102848 | 55 | 18 | 13.0 | 12.0 | 0.00 | 0.00 | 0.00 | ||
| 20260507102348 | 55 | 13 | 11.0 | 9.0 | 0.00 | 0.00 | 0.00 | ||
| 20260507101846 | 56 | 1 | 10.0 | 10.0 | 0.00 | 0.00 | 0.00 | ||
| 20260507100847 | 55 | 0 | 13.0 | 12.0 | 0.00 | 0.00 | 0.00 | ||
| 20260507100344 | 56 | 18 | 8.0 | 7.0 | 0.00 | 0.00 | 0.00 | ||
| 20260507095844 | 56 | 349 | 11.0 | 9.0 | 0.00 | 0.00 | 0.00 | ||
| 20260507095345 | 56 | 13 | 8.0 | 8.0 | 0.00 | 0.00 | 0.00 | ||
| 20260507094842 | 56 | 14 | 10.0 | 7.0 | 0.00 | 0.00 | 0.00 | ||
| 20260507094343 | 56 | 357 | 10.0 | 11.0 | 0.00 | 0.00 | 0.00 | ||
| 20260507093843 | 56 | 1 | 9.0 | 9.0 | 0.00 | 0.00 | 0.00 | ||
| 20260507093340 | 56 | 3 | 10.0 | 9.0 | 0.00 | 0.00 | 0.00 | ||
| 20260507092841 | 56 | 21 | 9.0 | 10.0 | 0.00 | 0.00 | 0.00 | ||
| 20260507092341 | 56 | 31 | 9.0 | 8.0 | 0.00 | 0.00 | 0.00 | ||
| 20260507091839 | 56 | 21 | 9.0 | 11.0 | 0.00 | 0.00 | 0.00 | ||
| 20260507091339 | 56 | 7 | 12.0 | 13.0 | 0.00 | 0.00 | 0.00 | ||
| 20260507090839 | 56 | 14 | 9.0 | 10.0 | 0.00 | 0.00 | 0.00 | ||
| 20260507090337 | 56 | 30 | 10.0 | 9.0 | 0.00 | 0.00 | 0.00 | ||
| 20260507085837 | 56 | 352 | 10.0 | 9.0 | 0.00 | 0.00 | 0.00 | ||
| 20260507085338 | 56 | 25 | 9.0 | 12.0 | 0.00 | 0.00 | 0.00 | ||
| 20260507084835 | 56 | 6 | 10.0 | 9.0 | 0.00 | 0.00 | 0.00 | ||
| 20260507084335 | 56 | 6 | 9.0 | 9.0 | 0.00 | 0.00 | 0.00 | ||
| 20260507083835 | 56 | 3 | 10.0 | 10.0 | 0.00 | 0.00 | 0.00 | ||
| 20260507083333 | 56 | 3 | 11.0 | 12.0 | 0.00 | 0.00 | 0.00 | ||
| 20260507082833 | 57 | 11 | 8.0 | 8.0 | 0.00 | 0.00 | 0.00 | ||
| 20260507082334 | 57 | 8 | 8.0 | 6.0 | 0.00 | 0.00 | 0.00 | ||
| 20260507081831 | 57 | 14 | 7.0 | 7.0 | 0.00 | 0.00 | 0.00 | ||
| 20260507081332 | 57 | 18 | 7.0 | 8.0 | 0.00 | 0.00 | 0.00 | ||
| 20260507080832 | 57 | 8 | 7.0 | 7.0 | 0.00 | 0.00 | 0.00 | ||
| 20260507080330 | 57 | 21 | 7.0 | 8.0 | 0.00 | 0.00 | 0.00 | ||
| 20260507075830 | 57 | 28 | 7.0 | 7.0 | 0.00 | 0.00 | 0.00 | ||
| 20260507075330 | 57 | 28 | 8.0 | 8.0 | 0.00 | 0.00 | 0.00 | ||
| 20260507074828 | 57 | 8 | 7.0 | 6.0 | 0.00 | 0.00 | 0.00 | ||
| 20260507074328 | 57 | 6 | 8.0 | 8.0 | 0.00 | 0.00 | 0.00 | ||
| 20260507073829 | 57 | 10 | 8.0 | 6.0 | 0.00 | 0.00 | 0.00 | ||
| 20260507073326 | 57 | 1 | 9.0 | 11.0 | 0.00 | 0.00 | 0.00 | ||
| 20260507072827 | 57 | 7 | 10.0 | 8.0 | 0.00 | 0.00 | 0.00 | ||
| 20260507072327 | 57 | 15 | 9.0 | 8.0 | 0.00 | 0.00 | 0.00 | ||
| 20260507071825 | 57 | 347 | 9.0 | 10.0 | 0.00 | 0.00 | 0.00 | ||
| 20260507071325 | 57 | 4 | 10.0 | 11.0 | 0.00 | 0.00 | 0.00 | ||
| 20260507070826 | 58 | 8 | 9.0 | 11.0 | 0.00 | 0.00 | 0.00 | ||
| 20260507070323 | 57 | 13 | 9.0 | 10.0 | 0.00 | 0.00 | 0.00 | ||
| 20260507065824 | 57 | 13 | 8.0 | 6.0 | 0.00 | 0.00 | 0.00 | ||
| 20260507065324 | 57 | 34 | 8.0 | 9.0 | 0.00 | 0.00 | 0.00 | ||
| 20260507064822 | 58 | 25 | 8.0 | 9.0 | 0.00 | 0.00 | 0.00 | ||
| 20260507064322 | 57 | 4 | 8.0 | 9.0 | 0.00 | 0.00 | 0.00 | ||
| 20260507063823 | 58 | 13 | 8.0 | 9.0 | 0.00 | 0.00 | 0.00 | ||
| 20260507063320 | 58 | 18 | 6.0 | 8.0 | 0.00 | 0.00 | 0.00 | ||
| 20260507062821 | 58 | 25 | 7.0 | 8.0 | 0.00 | 0.00 | 0.00 | ||
| 20260507062321 | 58 | 10 | 9.0 | 6.0 | 0.00 | 0.00 | 0.00 | ||
| 20260507061819 | 58 | 13 | 9.0 | 9.0 | 0.00 | 0.00 | 0.00 | ||
| 20260507061320 | 58 | 15 | 7.0 | 8.0 | 0.00 | 0.00 | 0.00 | ||
| 20260507060820 | 58 | 24 | 8.0 | 9.0 | 0.00 | 0.00 | 0.00 | ||
| 20260507060721 | 58 | 17 | 8.0 | 5.0 | 0.00 | 0.00 | 0.00 | ||
| 20260507060318 | 58 | 17 | 8.0 | 5.0 | 0.00 | 0.00 | 0.00 | ||
| 20260507055818 | 58 | 37 | 8.0 | 8.0 | 0.00 | 0.00 | 0.00 | ||
| 20260507055319 | 58 | 41 | 8.0 | 7.0 | 0.00 | 0.00 | 0.00 | ||
| 20260507054817 | 59 | 31 | 9.0 | 7.0 | 0.00 | 0.00 | 0.00 | ||
| 20260507054317 | 59 | 30 | 6.0 | 5.0 | 0.00 | 0.00 | 0.00 | ||
| 20260507053818 | 59 | 38 | 7.0 | 9.0 | 0.00 | 0.00 | 0.00 | ||
| 20260507053315 | 59 | 59 | 9.0 | 8.0 | 0.00 | 0.00 | 0.00 | ||
| 20260507052816 | 59 | 30 | 9.0 | 10.0 | 0.00 | 0.00 | 0.00 | ||
| 20260507052316 | 59 | 11 | 8.0 | 10.0 | 0.00 | 0.00 | 0.00 | ||
| 20260507051814 | 59 | 31 | 8.0 | 9.0 | 0.00 | 0.00 | 0.00 | ||
| 20260507051314 | 60 | 30 | 7.0 | 8.0 | 0.00 | 0.00 | 0.00 | ||
| 20260507050815 | 60 | 44 | 8.0 | 9.0 | 0.00 | 0.00 | 0.00 | ||
| 20260507050313 | 60 | 27 | 8.0 | 6.0 | 0.00 | 0.00 | 0.00 | ||
| 20260507045813 | 60 | 49 | 9.0 | 7.0 | 0.00 | 0.00 | 0.00 | ||
| 20260507045313 | 60 | 37 | 9.0 | 10.0 | 0.00 | 0.00 | 0.00 | ||
| 20260507044811 | 60 | 31 | 7.0 | 9.0 | 0.00 | 0.00 | 0.00 | ||
| 20260507044312 | 61 | 48 | 7.0 | 9.0 | 0.00 | 0.00 | 0.00 | ||
| 20260507043812 | 61 | 65 | 10.0 | 8.0 | 0.00 | 0.00 | 0.00 | ||
| 20260507043310 | 61 | 65 | 11.0 | 11.0 | 0.00 | 0.00 | 0.00 | ||
| 20260507042810 | 61 | 21 | 9.0 | 11.0 | 0.00 | 0.00 | 0.00 | ||
| 20260507042311 | 61 | 14 | 10.0 | 10.0 | 0.00 | 0.00 | 0.00 | ||
| 20260507041808 | 61 | 44 | 8.0 | 9.0 | 0.00 | 0.00 | 0.00 | ||
| 20260507041309 | 62 | 28 | 7.0 | 7.0 | 0.00 | 0.00 | 0.00 | ||
| 20260507040809 | 62 | 45 | 7.0 | 7.0 | 0.00 | 0.00 | 0.00 | ||
| 20260507040307 | 62 | 52 | 5.0 | 5.0 | 0.00 | 0.00 | 0.00 | ||
| 20260507035807 | 62 | 42 | 5.0 | 6.0 | 0.00 | 0.00 | 0.00 | ||
| 20260507035308 | 63 | 42 | 6.0 | 7.0 | 0.00 | 0.00 | 0.00 | ||
| 20260507034806 | 63 | 52 | 7.0 | 7.0 | 0.00 | 0.00 | 0.00 | ||
| 20260507034306 | 63 | 44 | 8.0 | 10.0 | 0.00 | 0.00 | 0.00 | ||
| 20260507033304 | 63 | 89 | 6.0 | 8.0 | 0.00 | 0.00 | 0.00 | ||
| 20260507032804 | 63 | 70 | 7.0 | 7.0 | 0.00 | 0.00 | 0.00 | ||
| 20260507032306 | 64 | 62 | 5.0 | 5.0 | 0.00 | 0.00 | 0.00 | ||
| 20260507031803 | 64 | 49 | 3.0 | 6.0 | 0.00 | 0.00 | 0.00 | ||
| 20260507031303 | 64 | 53 | 6.0 | 4.0 | 0.00 | 0.00 | 0.00 | ||
| 20260507030804 | 64 | 35 | 7.0 | 7.0 | 0.00 | 0.00 | 0.00 | ||
| 20260507030301 | 64 | 66 | 7.0 | 7.0 | 0.00 | 0.00 | 0.00 | ||
| 20260507025802 | 65 | 75 | 7.0 | 8.0 | 0.00 | 0.00 | 0.00 | ||
| 20260507025306 | 64 | 42 | 8.0 | 7.0 | 0.00 | 0.00 | 0.00 | ||
| 20260507024800 | 65 | 31 | 4.0 | 3.0 | 0.00 | 0.00 | 0.00 | ||
| 20260507024301 | 65 | 72 | 4.0 | 4.0 | 0.00 | 0.00 | 0.00 | ||
| 20260507023801 | 65 | 45 | 5.0 | 6.0 | 0.00 | 0.00 | 0.00 | ||
| 20260507023259 | 65 | 56 | 7.0 | 6.0 | 0.00 | 0.00 | 0.00 | ||
| 20260507022759 | 65 | 56 | 7.0 | 6.0 | 0.00 | 0.00 | 0.00 | ||
| 20260507022300 | 66 | 39 | 7.0 | 7.0 | 0.00 | 0.00 | 0.00 | ||
| 20260507021757 | 67 | 42 | 5.0 | 5.0 | 0.00 | 0.00 | 0.00 | ||
| 20260507021258 | 67 | 69 | 8.0 | 5.0 | 0.00 | 0.00 | 0.00 | ||
| 20260507020758 | 67 | 68 | 10.0 | 8.0 | 0.00 | 0.00 | 0.00 | ||
| 20260507020256 | 67 | 69 | 6.0 | 5.0 | 0.00 | 0.00 | 0.00 | ||
| 20260507015757 | 67 | 51 | 8.0 | 6.0 | 0.00 | 0.00 | 0.00 | ||
| 20260507015257 | 67 | 48 | 5.0 | 8.0 | 0.00 | 0.00 | 0.00 | ||
| 20260507014755 | 67 | 58 | 5.0 | 4.0 | 0.00 | 0.00 | 0.00 | ||
| 20260507014255 | 68 | 27 | 4.0 | 5.0 | 0.00 | 0.00 | 0.00 | ||
| 20260507013756 | 68 | 51 | 4.0 | 4.0 | 0.00 | 0.00 | 0.00 | ||
| 20260507013253 | 69 | 49 | 8.0 | 8.0 | 0.00 | 0.00 | 0.00 | ||
| 20260507012753 | 68 | 51 | 8.0 | 8.0 | 0.00 | 0.00 | 0.00 | ||
| 20260507012253 | 68 | 44 | 7.0 | 9.0 | 0.00 | 0.00 | 0.00 | ||
| 20260507011750 | 69 | 73 | 8.0 | 10.0 | 0.00 | 0.00 | 0.00 | ||
| 20260507011251 | 69 | 31 | 7.0 | 6.0 | 0.00 | 0.00 | 0.00 | ||
| 20260507010751 | 69 | 46 | 6.0 | 6.0 | 0.00 | 0.00 | 0.00 | ||
| 20260507010249 | 69 | 17 | 10.0 | 9.0 | 0.00 | 0.00 | 0.00 | ||
| 20260507005749 | 69 | 44 | 7.0 | 9.0 | 0.00 | 0.00 | 0.00 | ||
| 20260507005249 | 70 | 46 | 6.0 | 5.0 | 0.00 | 0.00 | 0.00 | ||
| 20260507004746 | 70 | 38 | 9.0 | 11.0 | 0.00 | 0.00 | 0.00 | ||
| 20260507003746 | 70 | 89 | 8.0 | 8.0 | 0.00 | 0.00 | 0.00 | ||
| 20260507003244 | 70 | 45 | 10.0 | 9.0 | 0.00 | 0.00 | 0.00 | ||
| 20260507002744 | 70 | 44 | 9.0 | 8.0 | 0.00 | 0.00 | 0.00 | ||
| 20260507002244 | 70 | 52 | 11.0 | 11.0 | 0.00 | 0.00 | 0.00 | ||
| 20260507001243 | 70 | 38 | 11.0 | 11.0 | 0.00 | 0.00 | 0.00 | ||
| 20260507000743 | 71 | 42 | 10.0 | 8.0 | 0.00 | 0.00 | 0.00 | ||
| 20260506235741 | 71 | 65 | 8.0 | 10.0 | 0.00 | 0.00 | 0.00 | ||
| 20260506234738 | 71 | 80 | 8.0 | 8.0 | 0.00 | 0.00 | 0.00 | ||
| 20260506234239 | 71 | 63 | 9.0 | 5.0 | 0.00 | 0.00 | 0.00 | ||
| 20260506233739 | 71 | 53 | 8.0 | 8.0 | 0.00 | 0.00 | 0.00 | ||
| 20260506233237 | 71 | 53 | 7.0 | 7.0 | 0.00 | 0.00 | 0.00 | ||
| 20260506232737 | 71 | 27 | 8.0 | 7.0 | 0.00 | 0.00 | 0.00 | ||
| 20260506232238 | 71 | 60 | 6.0 | 6.0 | 0.00 | 0.00 | 0.00 | ||
| 20260506231735 | 71 | 62 | 8.0 | 6.0 | 0.00 | 0.00 | 0.00 | ||
| 20260506231236 | 71 | 51 | 9.0 | 10.0 | 0.00 | 0.00 | 0.00 | ||
| 20260506230736 | 72 | 60 | 8.0 | 6.0 | 0.00 | 0.00 | 0.00 | ||
| 20260506230234 | 72 | 27 | 5.0 | 7.0 | 0.00 | 0.00 | 0.00 | ||
| 20260506225734 | 72 | 65 | 7.0 | 7.0 | 0.00 | 0.00 | 0.00 | ||
| 20260506225235 | 72 | 108 | 8.0 | 6.0 | 0.00 | 0.00 | 0.00 | ||
| 20260506224732 | 72 | 101 | 6.0 | 6.0 | 0.00 | 0.00 | 0.00 | ||
| 20260506224233 | 72 | 42 | 6.0 | 12.0 | 0.00 | 0.00 | 0.00 | ||
| 20260506223733 | 72 | 94 | 7.0 | 7.0 | 0.00 | 0.00 | 0.00 | ||
| 20260506222731 | 72 | 89 | 6.0 | 6.0 | 0.00 | 0.00 | 0.00 | ||
| 20260506222232 | 72 | 56 | 6.0 | 5.0 | 0.00 | 0.00 | 0.00 | ||
| 20260506221729 | 72 | 15 | 7.0 | 7.0 | 0.00 | 0.00 | 0.00 | ||
| 20260506221230 | 72 | 41 | 5.0 | 6.0 | 0.00 | 0.00 | 0.00 | ||
| 20260506220730 | 72 | 82 | 5.0 | 5.0 | 0.00 | 0.00 | 0.00 | ||
| 20260506220228 | 72 | 100 | 3.0 | 4.0 | 0.00 | 0.00 | 0.00 | ||
| 20260506215728 | 72 | 39 | 3.0 | 1.0 | 0.00 | 0.00 | 0.00 | ||
| 20260506215229 | 71 | 8 | 3.0 | 1.0 | 0.00 | 0.00 | 0.00 | ||
| 20260506214726 | 71 | 42 | 3.0 | 0.0 | 0.00 | 0.00 | 0.00 | ||
| 20260506214227 | 72 | 35 | 0.0 | 6.0 | 0.00 | 0.00 | 0.00 | ||
| 20260506213727 | 72 | 60 | 9.0 | 6.0 | 0.00 | 0.00 | 0.00 | ||
| 20260506213225 | 72 | 104 | 4.0 | 4.0 | 0.00 | 0.00 | 0.00 | ||
| 20260506212725 | 71 | 28 | 5.0 | 0.0 | 0.00 | 0.00 | 0.00 | ||
| 20260506212226 | 71 | 32 | 8.0 | 8.0 | 0.00 | 0.00 | 0.00 | ||
| 20260506211723 | 70 | 39 | 5.0 | 5.0 | 0.00 | 0.00 | 0.00 | ||
| 20260506211224 | 70 | 11 | 5.0 | 9.0 | 0.00 | 0.00 | 0.00 | ||
| 20260506210724 | 69 | 42 | 5.0 | 3.0 | 0.00 | 0.00 | 0.00 | ||
| 20260506210222 | 70 | 59 | 4.0 | 2.0 | 0.00 | 0.00 | 0.00 | ||
| 20260506205722 | 70 | 55 | 5.0 | 7.0 | 0.00 | 0.00 | 0.00 | ||
| 20260506205223 | 70 | 28 | 6.0 | 5.0 | 0.00 | 0.00 | 0.00 | ||
| 20260506204720 | 70 | 65 | 6.0 | 3.0 | 0.00 | 0.00 | 0.00 | ||
| 20260506204221 | 69 | 72 | 8.0 | 8.0 | 0.00 | 0.00 | 0.00 | ||
| 20260506203721 | 69 | 58 | 4.0 | 5.0 | 0.00 | 0.00 | 0.00 | ||
| 20260506202719 | 70 | 39 | 5.0 | 9.0 | 0.00 | 0.00 | 0.00 | ||
| 20260506202220 | 69 | 82 | 7.0 | 5.0 | 0.00 | 0.00 | 0.00 | ||
| 20260506201718 | 69 | 44 | 6.0 | 7.0 | 0.00 | 0.00 | 0.00 | ||
| 20260506201218 | 69 | 87 | 6.0 | 3.0 | 0.00 | 0.00 | 0.00 | ||
| 20260506200719 | 68 | 37 | 9.0 | 6.0 | 0.00 | 0.00 | 0.00 | ||
| 20260506200216 | 69 | 63 | 7.0 | 8.0 | 0.00 | 0.00 | 0.00 | ||
| 20260506195717 | 68 | 39 | 7.0 | 6.0 | 0.00 | 0.00 | 0.00 | ||
| 20260506195217 | 67 | 330 | 7.0 | 5.0 | 0.00 | 0.00 | 0.00 | ||
| 20260506194715 | 67 | 60 | 10.0 | 7.0 | 0.00 | 0.00 | 0.00 | ||
| 20260506194215 | 67 | 14 | 9.0 | 6.0 | 0.00 | 0.00 | 0.00 | ||
| 20260506193716 | 67 | 17 | 9.0 | 6.0 | 0.00 | 0.00 | 0.00 |